SCP
-0 -0 -0 -0 -0 -0 -0 -0 -0 -0 -0 -0 -0 0 0 0 0 0 0 -0 0 0 0 0 0 0 0 0 0 0 0 0 -0 -0 -0 -0 -0 -0 -0 -0 -0 -0 -0
-0 -0 -0 -0 -0 -0 -0 -0 -0 -0 -0 -0 -0 -0 -0 -0 0 0 0 0 0 0 0 0 0 0 0 0 0 0 0 0 0 0 -0 -0 -0 -0 -0 -0 -0 -0 -0
-0 -0 -0 -0 -0 -0 -0 -0 -0 -0 -0 -0 -0 -0 -0 -0 -0 -0 -0 0 0 0 0 0 0 0 0 0 0 0 0 0 0 -0 0 0 0 -0 -0 -0 -0 -0 -0
-0 -0 -0 -0 -0 -0 -0 -0 -0 -0 -0 0 0 0 0 0 0 0 0 0 0 0 0 0 0 0 0 0 0 0 0 0 0 0 0 0 0 -0 -0 -0 -0 -0 0
-0 -0 -0 -0 -0 -0 -0 -0 -0 -0 -0 0 0 0 0 0 0 0 0 0 0 0 0 0 0 0 0 0 0 0 0 0 0 0 0 0 0 0 -0 -0 -0 0 0
0 -0 -0 -0 -0 -0 -0 -0 -0 -0 0 0 0 0 0 0 0 0 0 0 0 0 0 0 0 0 0 0 0 0 0 0 0 0 0 0 0 0 0 0 0 0 0
0 0 -0 -0 -0 -0 -0 -0 -0 0 0 0 0 0 0 0 0 0 0 0 0 0 0 0 0 0 0 0 0 0 0 0 0 0 0 0 0 0 0 0 0 0 0
0 0 0 0 -0 -0 0 0 0 0 0 0 0 0 0 0 0 0 0 0 0 0 0 0 0 0 0 0 0 0 0 0 0 0 0 0 0 0 0 0 0 0 0
0 0 0 0 0 0 0 0 0 0 0 0 0 0 0 0 0 0 0 0 0 0 0 0 0 0 0 0 0 0 0 0 0 0 0 0 0 0 0 0 0 0 0
0 0 0 0 0 0 0 0 0 0 0 0 0 0 0 0 0 0 0 0 0 0 0 0 0 0 0 0 0 0 0 0 0 0 0 0 0 0 0 0 0 0 0
0 0 0 0 0 0 0 0 0 0 0 0 0 0 0 0 0 0 0 0 0 0 0 0 0 0 0 0 0 0 0 0 0 0 0 0 0 0 0 0 0 0 0
0 0 0 0 0 0 0 0 0 0 0 0 0 0 0 0 0 0 0 0 0 0 0 0 0 0 0 0 0 0 0 0 0 0 0 0 0 0 0 0 0 0 0
0 0 0 0 0 0 0 0 0 0 0 0 0 0 0 0 0 0 0 0 0 0 0 0 0 0 0 0 0 0 0 0 0 0 0 0 0 0 0 0 0 0 0
0 0 0 0 0 0 0 0 0 0 0 0 0 0 0 0 0 0 0 0 0 0 0 0 0 0 0 0 0 0 0 0 0 0 0 0 0 0 0 0 0 0 0
0 0 0 0 0 0 0 0 0 0 0 0 0 0 0 0 0 0 0 0 0 0 0 0 0 0 0 0 0 0 0 0 0 0 0 0 0 0 0 0 0 0 0
0 0 0 0 0 0 0 0 0 0 0 0 0 0 0 0 0 0 0 0 0 0 0 0 0 0 0 0 0 0 0 0 0 0 0 0 0 0 0 0 0 0 0
0 0 0 0 0 0 0 0 0 0 0 0 0 0 0 0 0 0 0 0 0 0 0 0 0 0 0 0 0 0 0 0 0 0 0 0 0 0 0 1 0 0 0
0 0 0 0 0 0 0 0 0 0 0 0 0 0 0 0 0 0 0 0 0 0 0 0 0 0 0 0 0 0 0 0 0 0 0 0 0 0 0 0 0 0 0
0 0 0 0 0 0 0 0 0 0 0 0 0 0 0 0 0 0 0 0 0 0 0 0 0 0 0 0 0 0 0 0 0 0 0 0 0 0 0 0 0 0 0
0 0 0 0 0 0 0 0 0 0 0 0 0 0 0 0 0 0 0 0 0 0 0 0 0 0 0 0 0 0 0 0 0 1 0 0 0 0 0 0 0 0 0
0 0 0 0 0 0 0 0 0 0 0 0 0 0 0 0 0 0 0 0 0 0 0 0 0 0 0 0 0 0 0 0 0 0 0 0 0 0 0 0 0 0 0
0 0 0 0 0 0 0 0 0 0 0 0 0 0 0 0 0 0 0 0 0 0 0 0 0 0 0 0 0 0 0 0 0 0 0 0 0 0 0 0 0 0 0
0 0 0 0 0 0 0 0 0 0 0 0 0 0 0 0 0 0 0 0 0 0 0 0 0 0 0 0 0 0 0 0 0 0 0 0 0 0 0 0 0 0 0
0 0 0 0 0 0 0 0 0 0 0 0 0 0 0 0 0 0 0 0 0 0 0 0 0 0 0 0 0 0 0 0 0 0 0 0 0 0 0 0 0 0 0
0 0 0 0 0 0 0 0 0 0 0 0 0 0 0 0 0 0 0 0 0 0 0 0 0 0 0 0 0 0 0 0 0 0 0 0 0 0 0 0 0 0 0
0 0 0 0 0 0 0 0 0 0 0 0 0 0 0 0 0 0 0 0 0 0 0 0 0 0 0 0 0 0 0 0 0 0 0 0 0 0 0 0 0 0 0
Wind_Speed_500mb
12 8 24 32 30 28 26 24 22 17 12 9 5 3 2 3 5 7 8 8 8 7 5 6 9 12 21 24 26 25 25 26 25 26 21 38 36 37 38 36 37 37 37
11 11 19 30 30 28 25 23 21 18 13 9 6 4 6 8 8 7 4 7 11 9 3 4 6 2 17 20 21 24 28 26 29 35 41 39 39 42 38 39 37 33 33
10 14 19 27 31 27 23 20 17 15 13 10 8 10 10 11 9 4 7 10 12 9 8 7 2 1 15 20 23 24 28 36 43 39 37 41 39 37 38 33 29 25 15
12 14 18 24 28 27 24 19 16 15 13 11 11 12 15 13 10 9 10 9 8 11 6 8 10 12 14 17 23 35 43 43 39 35 37 42 39 36 29 32 22 14 9
15 15 15 24 26 27 25 20 16 13 12 9 10 10 11 13 16 18 16 18 17 15 8 13 17 17 16 21 27 42 43 41 36 31 34 39 35 31 27 24 17 10 6
16 14 12 23 24 25 24 21 19 14 11 8 9 8 6 7 19 25 26 25 23 17 18 18 21 18 21 25 30 44 43 40 34 32 34 36 33 32 29 25 16 7 3
20 16 13 13 21 24 23 23 21 19 15 10 9 7 5 4 7 14 26 34 31 23 25 22 22 26 20 31 34 43 42 39 37 34 40 39 38 37 32 28 14 7 2
15 19 18 18 21 28 26 25 23 21 19 15 13 11 9 8 9 11 12 19 24 25 29 26 27 27 25 38 38 40 43 40 40 35 45 42 40 36 35 26 20 10 5
19 19 18 18 21 28 30 29 26 25 25 22 19 17 15 14 13 14 14 14 14 29 27 34 33 32 24 45 39 44 45 40 42 40 46 45 43 39 31 29 22 14 8
25 21 15 15 14 25 30 30 29 28 28 27 25 23 23 22 21 20 19 17 17 26 32 30 36 36 30 45 45 45 47 45 47 50 53 57 55 49 38 33 24 17 11
20 16 23 17 15 16 19 25 26 27 27 28 31 30 29 31 30 29 27 23 21 21 29 37 38 40 43 43 52 50 49 52 54 53 47 58 50 47 45 36 34 22 16
24 21 18 19 24 27 25 24 27 30 31 34 37 36 38 38 39 38 36 32 29 27 29 36 44 44 45 45 56 58 56 58 60 60 55 59 55 47 46 41 39 31 21
25 27 26 25 24 25 31 32 31 32 36 37 36 39 41 41 45 46 43 41 41 37 37 39 44 52 54 46 63 63 64 62 63 66 65 68 66 56 51 51 40 37 26
29 27 29 32 30 32 34 36 40 38 36 36 39 42 42 41 44 46 48 47 50 48 48 47 47 51 60 57 62 67 71 69 66 75 70 65 63 63 59 54 44 41 33
35 35 33 33 33 35 36 37 38 40 39 38 39 39 40 41 43 46 49 53 58 59 61 60 60 58 60 64 66 73 77 77 71 76 72 70 66 67 66 57 50 45 40
29 23 25 29 30 32 36 37 34 35 37 41 43 44 46 48 48 46 50 55 61 69 69 70 74 72 69 67 72 73 81 85 81 76 83 75 76 75 72 64 56 47 46
20 26 32 20 11 10 12 14 16 19 24 29 33 38 48 52 55 55 53 52 55 58 72 76 72 82 75 81 77 83 80 86 90 88 85 87 82 78 74 73 64 54 50
22 18 13 10 5 3 9 18 27 32 34 35 35 35 36 38 42 46 51 52 49 51 58 71 74 66 78 88 92 87 96 88 93 98 95 94 90 89 87 84 74 61 57
26 19 14 8 4 4 15 27 35 40 45 44 43 42 43 44 44 46 46 49 48 49 52 55 63 77 81 75 91 102 102 97 99 96 102 97 98 98 92 95 85 76 71
28 22 14 11 9 6 23 38 49 53 42 40 44 47 48 50 52 54 57 59 56 55 56 61 63 66 71 76 83 81 109 102 98 99 104 104 99 102 98 113 93 85 78
24 20 21 19 16 16 35 47 54 55 48 41 42 44 46 47 49 56 62 65 64 66 65 62 61 65 70 66 71 85 90 68 95 111 99 101 102 101 110 115 94 95 89
24 26 25 20 16 30 47 52 53 50 49 48 49 49 52 58 58 59 64 69 72 73 73 72 71 71 72 65 64 56 62 69 80 94 110 116 114 114 114 117 115 107 105
23 22 20 20 29 43 53 57 56 56 57 58 57 59 60 61 62 66 73 78 79 79 80 81 82 81 80 76 69 62 36 52 49 66 105 116 108 107 111 122 132 118 118
17 24 30 36 39 54 59 60 61 65 68 67 68 71 72 72 75 74 75 78 80 82 88 91 87 87 87 88 79 79 82 70 40 42 66 89 110 88 122 128 124 128 115
24 30 38 42 50 61 64 62 65 67 68 72 75 79 82 83 81 80 79 82 85 86 92 89 89 93 94 93 93 83 83 77 87 75 57 66 99 107 100 122 129 119 127
27 38 43 51 62 66 63 63 64 69 74 80 84 88 89 88 85 83 82 80 78 83 92 89 81 85 97 98 95 92 86 76 69 68 69 68 58 76 80 71 129 130 123
Wind_Direction_500mb
219 179 173 175 174 171 167 166 163 166 172 163 169 163 213 231 230 237 241 257 270 278 342 351 329 163 184 188 199 208 200 181 173 184 163 138 136 142 145 150 143 137 140
208 194 172 179 179 177 174 172 171 173 177 180 192 246 262 262 260 268 260 255 274 285 247 254 290 260 177 176 169 174 179 176 170 148 141 143 147 149 146 145 146 142 139
193 177 170 176 179 180 180 178 180 184 194 207 233 251 248 256 267 205 224 240 274 284 243 234 263 131 178 162 159 167 162 148 143 149 154 151 156 153 156 162 148 139 129
190 172 173 170 176 180 182 186 195 203 208 220 242 260 261 243 216 202 230 246 228 238 235 196 175 191 179 160 162 155 144 145 155 159 163 157 159 164 164 154 148 133 113
184 173 177 181 180 179 182 186 191 191 205 237 269 275 266 229 211 203 218 218 224 241 233 206 219 193 192 177 169 163 158 161 170 176 177 167 163 168 169 160 155 138 109
184 191 174 188 192 191 193 195 196 200 213 256 282 279 294 240 213 217 219 230 243 259 181 208 228 244 211 191 180 173 169 172 180 184 187 182 172 178 187 175 165 154 124
183 202 209 199 209 207 205 210 211 217 227 253 277 265 274 265 241 242 244 242 248 249 193 211 230 257 258 192 174 184 180 181 181 181 186 186 186 182 196 198 184 199 234
202 199 209 222 217 214 215 219 222 226 238 249 255 252 258 261 276 277 288 257 249 200 201 212 221 241 237 180 179 186 189 192 192 191 189 191 188 192 200 187 187 203 226
198 228 221 222 229 220 219 223 222 228 239 249 254 250 249 253 263 271 288 281 263 205 210 215 225 231 243 189 192 191 197 203 205 200 194 197 210 210 209 196 194 202 214
199 221 222 221 227 223 227 229 231 236 243 255 256 258 254 253 255 260 264 268 264 224 218 220 224 235 238 209 205 202 201 204 217 217 218 204 202 207 223 210 208 205 214
211 222 195 210 210 225 235 241 244 250 256 261 260 260 259 258 259 262 263 261 256 250 236 225 229 226 235 224 213 213 208 209 216 219 216 210 208 212 223 218 235 220 219
212 210 212 209 222 230 232 234 241 242 251 258 264 268 261 260 260 260 262 260 254 253 249 240 233 231 233 236 220 218 213 213 219 219 218 217 222 214 211 213 222 232 227
206 210 215 226 232 231 230 236 238 245 247 249 253 261 263 262 260 259 265 263 255 247 247 245 239 235 235 236 225 226 220 217 221 221 219 221 227 223 220 225 218 216 216
222 223 233 243 234 233 237 241 246 248 252 256 261 264 266 264 260 261 261 263 264 262 258 253 251 245 238 236 230 230 230 226 221 220 218 223 218 217 217 218 233 211 211
237 245 251 244 246 252 257 254 251 251 253 257 260 264 268 269 265 264 263 264 259 262 259 256 253 250 244 240 238 235 232 231 227 226 223 223 223 225 218 219 229 227 214
242 242 250 261 265 253 256 266 269 261 257 257 260 266 268 272 270 265 263 265 264 257 258 259 256 256 252 246 242 240 237 232 230 228 228 229 223 225 220 220 218 229 219
239 255 262 256 238 251 270 289 297 287 275 269 265 260 259 264 272 278 277 266 260 260 262 254 256 255 256 251 246 242 239 237 234 231 229 227 226 218 225 219 216 225 216
271 257 225 235 232 305 340 336 323 309 298 292 288 283 276 270 267 270 271 273 274 269 259 257 257 250 249 253 251 250 242 238 238 235 234 230 226 224 228 221 222 227 216
269 229 224 213 221 352 1 352 338 319 295 287 285 284 282 280 279 277 275 275 275 271 266 262 263 258 256 256 256 248 244 241 238 238 239 236 233 230 224 220 223 224 220
256 218 213 214 220 262 324 329 333 328 319 291 279 276 277 278 278 275 274 277 277 272 267 265 262 260 261 261 260 256 238 245 239 238 235 240 236 233 232 218 218 222 222
202 204 209 220 232 298 324 327 326 322 318 305 295 290 286 281 275 273 273 273 273 272 270 270 267 264 264 258 263 260 257 251 239 248 239 235 237 241 234 227 227 221 221
197 205 220 230 254 307 323 326 324 319 308 298 292 285 276 274 275 270 268 267 265 266 264 261 259 263 264 258 250 257 257 257 249 249 236 239 231 233 236 230 227 222 215
208 226 239 259 295 318 323 323 317 311 305 302 300 296 291 283 275 266 265 265 266 267 266 264 260 255 260 260 250 237 246 246 254 256 237 226 226 226 230 233 226 227 223
245 256 271 284 299 320 323 319 316 313 310 308 305 300 296 290 284 278 272 267 264 264 265 264 264 260 257 254 253 249 246 246 247 253 251 227 227 227 227 223 221 215 220
250 271 282 290 303 316 318 317 313 309 307 306 304 301 297 293 290 285 278 271 268 265 262 264 266 262 255 255 253 250 250 243 246 247 260 243 229 226 229 225 221 218 221
289 289 294 300 307 314 314 312 309 309 308 307 306 303 301 299 295 290 287 284 277 268 263 263 263 263 259 254 251 249 245 239 233 232 240 248 263 257 237 230 215 211 223
Wind_Speed_850mb
12 8 24 32 30 28 26 24 22 17 12 9 5 3 2 3 5 7 8 8 8 7 5 6 9 12 21 24 26 25 25 26 25 26 21 38 36 37 38 36 37 37 37
11 11 19 30 30 28 25 23 21 18 13 9 6 4 6 8 8 7 4 7 11 9 3 4 6 2 17 20 21 24 28 26 29 35 41 39 39 42 38 39 37 33 33
10 14 19 27 31 27 23 20 17 15 13 10 8 10 10 11 9 4 7 10 12 9 8 7 2 1 15 20 23 24 28 36 43 39 37 41 39 37 38 33 29 25 15
12 14 18 24 28 27 24 19 16 15 13 11 11 12 15 13 10 9 10 9 8 11 6 8 10 12 14 17 23 35 43 43 39 35 37 42 39 36 29 32 22 14 9
15 15 15 24 26 27 25 20 16 13 12 9 10 10 11 13 16 18 16 18 17 15 8 13 17 17 16 21 27 42 43 41 36 31 34 39 35 31 27 24 17 10 6
16 14 12 23 24 25 24 21 19 14 11 8 9 8 6 7 19 25 26 25 23 17 18 18 21 18 21 25 30 44 43 40 34 32 34 36 33 32 29 25 16 7 3
20 16 13 13 21 24 23 23 21 19 15 10 9 7 5 4 7 14 26 34 31 23 25 22 22 26 20 31 34 43 42 39 37 34 40 39 38 37 32 28 14 7 2
15 19 18 18 21 28 26 25 23 21 19 15 13 11 9 8 9 11 12 19 24 25 29 26 27 27 25 38 38 40 43 40 40 35 45 42 40 36 35 26 20 10 5
19 19 18 18 21 28 30 29 26 25 25 22 19 17 15 14 13 14 14 14 14 29 27 34 33 32 24 45 39 44 45 40 42 40 46 45 43 39 31 29 22 14 8
25 21 15 15 14 25 30 30 29 28 28 27 25 23 23 22 21 20 19 17 17 26 32 30 36 36 30 45 45 45 47 45 47 50 53 57 55 49 38 33 24 17 11
20 16 23 17 15 16 19 25 26 27 27 28 31 30 29 31 30 29 27 23 21 21 29 37 38 40 43 43 52 50 49 52 54 53 47 58 50 47 45 36 34 22 16
24 21 18 19 24 27 25 24 27 30 31 34 37 36 38 38 39 38 36 32 29 27 29 36 44 44 45 45 56 58 56 58 60 60 55 59 55 47 46 41 39 31 21
25 27 26 25 24 25 31 32 31 32 36 37 36 39 41 41 45 46 43 41 41 37 37 39 44 52 54 46 63 63 64 62 63 66 65 68 66 56 51 51 40 37 26
29 27 29 32 30 32 34 36 40 38 36 36 39 42 42 41 44 46 48 47 50 48 48 47 47 51 60 57 62 67 71 69 66 75 70 65 63 63 59 54 44 41 33
35 35 33 33 33 35 36 37 38 40 39 38 39 39 40 41 43 46 49 53 58 59 61 60 60 58 60 64 66 73 77 77 71 76 72 70 66 67 66 57 50 45 40
29 23 25 29 30 32 36 37 34 35 37 41 43 44 46 48 48 46 50 55 61 69 69 70 74 72 69 67 72 73 81 85 81 76 83 75 76 75 72 64 56 47 46
20 26 32 20 11 10 12 14 16 19 24 29 33 38 48 52 55 55 53 52 55 58 72 76 72 82 75 81 77 83 80 86 90 88 85 87 82 78 74 73 64 54 50
22 18 13 10 5 3 9 18 27 32 34 35 35 35 36 38 42 46 51 52 49 51 58 71 74 66 78 88 92 87 96 88 93 98 95 94 90 89 87 84 74 61 57
26 19 14 8 4 4 15 27 35 40 45 44 43 42 43 44 44 46 46 49 48 49 52 55 63 77 81 75 91 102 102 97 99 96 102 97 98 98 92 95 85 76 71
28 22 14 11 9 6 23 38 49 53 42 40 44 47 48 50 52 54 57 59 56 55 56 61 63 66 71 76 83 81 109 102 98 99 104 104 99 102 98 113 93 85 78
24 20 21 19 16 16 35 47 54 55 48 41 42 44 46 47 49 56 62 65 64 66 65 62 61 65 70 66 71 85 90 68 95 111 99 101 102 101 110 115 94 95 89
24 26 25 20 16 30 47 52 53 50 49 48 49 49 52 58 58 59 64 69 72 73 73 72 71 71 72 65 64 56 62 69 80 94 110 116 114 114 114 117 115 107 105
23 22 20 20 29 43 53 57 56 56 57 58 57 59 60 61 62 66 73 78 79 79 80 81 82 81 80 76 69 62 36 52 49 66 105 116 108 107 111 122 132 118 118
17 24 30 36 39 54 59 60 61 65 68 67 68 71 72 72 75 74 75 78 80 82 88 91 87 87 87 88 79 79 82 70 40 42 66 89 110 88 122 128 124 128 115
24 30 38 42 50 61 64 62 65 67 68 72 75 79 82 83 81 80 79 82 85 86 92 89 89 93 94 93 93 83 83 77 87 75 57 66 99 107 100 122 129 119 127
27 38 43 51 62 66 63 63 64 69 74 80 84 88 89 88 85 83 82 80 78 83 92 89 81 85 97 98 95 92 86 76 69 68 69 68 58 76 80 71 129 130 123
Wind_Direction_850mb
219 179 173 175 174 171 167 166 163 166 172 163 169 163 213 231 230 237 241 257 270 278 342 351 329 163 184 188 199 208 200 181 173 184 163 138 136 142 145 150 143 137 140
208 194 172 179 179 177 174 172 171 173 177 180 192 246 262 262 260 268 260 255 274 285 247 254 290 260 177 176 169 174 179 176 170 148 141 143 147 149 146 145 146 142 139
193 177 170 176 179 180 180 178 180 184 194 207 233 251 248 256 267 205 224 240 274 284 243 234 263 131 178 162 159 167 162 148 143 149 154 151 156 153 156 162 148 139 129
190 172 173 170 176 180 182 186 195 203 208 220 242 260 261 243 216 202 230 246 228 238 235 196 175 191 179 160 162 155 144 145 155 159 163 157 159 164 164 154 148 133 113
184 173 177 181 180 179 182 186 191 191 205 237 269 275 266 229 211 203 218 218 224 241 233 206 219 193 192 177 169 163 158 161 170 176 177 167 163 168 169 160 155 138 109
184 191 174 188 192 191 193 195 196 200 213 256 282 279 294 240 213 217 219 230 243 259 181 208 228 244 211 191 180 173 169 172 180 184 187 182 172 178 187 175 165 154 124
183 202 209 199 209 207 205 210 211 217 227 253 277 265 274 265 241 242 244 242 248 249 193 211 230 257 258 192 174 184 180 181 181 181 186 186 186 182 196 198 184 199 234
202 199 209 222 217 214 215 219 222 226 238 249 255 252 258 261 276 277 288 257 249 200 201 212 221 241 237 180 179 186 189 192 192 191 189 191 188 192 200 187 187 203 226
198 228 221 222 229 220 219 223 222 228 239 249 254 250 249 253 263 271 288 281 263 205 210 215 225 231 243 189 192 191 197 203 205 200 194 197 210 210 209 196 194 202 214
199 221 222 221 227 223 227 229 231 236 243 255 256 258 254 253 255 260 264 268 264 224 218 220 224 235 238 209 205 202 201 204 217 217 218 204 202 207 223 210 208 205 214
211 222 195 210 210 225 235 241 244 250 256 261 260 260 259 258 259 262 263 261 256 250 236 225 229 226 235 224 213 213 208 209 216 219 216 210 208 212 223 218 235 220 219
212 210 212 209 222 230 232 234 241 242 251 258 264 268 261 260 260 260 262 260 254 253 249 240 233 231 233 236 220 218 213 213 219 219 218 217 222 214 211 213 222 232 227
206 210 215 226 232 231 230 236 238 245 247 249 253 261 263 262 260 259 265 263 255 247 247 245 239 235 235 236 225 226 220 217 221 221 219 221 227 223 220 225 218 216 216
222 223 233 243 234 233 237 241 246 248 252 256 261 264 266 264 260 261 261 263 264 262 258 253 251 245 238 236 230 230 230 226 221 220 218 223 218 217 217 218 233 211 211
237 245 251 244 246 252 257 254 251 251 253 257 260 264 268 269 265 264 263 264 259 262 259 256 253 250 244 240 238 235 232 231 227 226 223 223 223 225 218 219 229 227 214
242 242 250 261 265 253 256 266 269 261 257 257 260 266 268 272 270 265 263 265 264 257 258 259 256 256 252 246 242 240 237 232 230 228 228 229 223 225 220 220 218 229 219
239 255 262 256 238 251 270 289 297 287 275 269 265 260 259 264 272 278 277 266 260 260 262 254 256 255 256 251 246 242 239 237 234 231 229 227 226 218 225 219 216 225 216
271 257 225 235 232 305 340 336 323 309 298 292 288 283 276 270 267 270 271 273 274 269 259 257 257 250 249 253 251 250 242 238 238 235 234 230 226 224 228 221 222 227 216
269 229 224 213 221 352 1 352 338 319 295 287 285 284 282 280 279 277 275 275 275 271 266 262 263 258 256 256 256 248 244 241 238 238 239 236 233 230 224 220 223 224 220
256 218 213 214 220 262 324 329 333 328 319 291 279 276 277 278 278 275 274 277 277 272 267 265 262 260 261 261 260 256 238 245 239 238 235 240 236 233 232 218 218 222 222
202 204 209 220 232 298 324 327 326 322 318 305 295 290 286 281 275 273 273 273 273 272 270 270 267 264 264 258 263 260 257 251 239 248 239 235 237 241 234 227 227 221 221
197 205 220 230 254 307 323 326 324 319 308 298 292 285 276 274 275 270 268 267 265 266 264 261 259 263 264 258 250 257 257 257 249 249 236 239 231 233 236 230 227 222 215
208 226 239 259 295 318 323 323 317 311 305 302 300 296 291 283 275 266 265 265 266 267 266 264 260 255 260 260 250 237 246 246 254 256 237 226 226 226 230 233 226 227 223
245 256 271 284 299 320 323 319 316 313 310 308 305 300 296 290 284 278 272 267 264 264 265 264 264 260 257 254 253 249 246 246 247 253 251 227 227 227 227 223 221 215 220
250 271 282 290 303 316 318 317 313 309 307 306 304 301 297 293 290 285 278 271 268 265 262 264 266 262 255 255 253 250 250 243 246 247 260 243 229 226 229 225 221 218 221
289 289 294 300 307 314 314 312 309 309 308 307 306 303 301 299 295 290 287 284 277 268 263 263 263 263 259 254 251 249 245 239 233 232 240 248 263 257 237 230 215 211 223